Regional Weather Roundup
Issued by NWS Little Rock, AR

Home | Current Version | Previous Version | Graphics & Text | Print | Product List | Glossary On
Versions: 1 2 3 4 5 6 7 8 9 10 11 12 13 14 15 16 17 18 19 20 21 22 23 24 25 26 27 28 29 30 31 32 33 34 35 36 37 38 39 40 41 42 43 44 45 46 47 48 49 50
000
ASUS44 KLZK 041705
RWRLZK

WEATHER ROUNDUP FOR ARKANSAS
NATIONAL WEATHER SERVICE LITTLE ROCK AR
1200 PM CDT SAT JUL 04 2015

NOTE: "FAIR" INDICATES FEW OR NO CLOUDS BELOW 12,000 FEET WITH NO
SIGNIFICANT WEATHER AND/OR OBSTRUCTIONS TO VISIBILITY.

ARZ001-003-010-029-041800-
NORTHWEST ARKANSAS

CITY           SKY/WX    TMP DP  RH WIND       PRES   REMARKS
FAYETTEVILLE   PTSUNNY   80  70  71 VRB6      30.01S
FORT SMITH     MOSUNNY   81  69  67 CALM      29.98R
HARRISON       MOSUNNY   79  69  71 SE5       30.03S
BENTONVILLE    PTSUNNY   82  70  65 SE6       30.03S HX  86
ROGERS         MOSUNNY   79  68  69 VRB6      30.03S
SILOAM SPGS    MOSUNNY   81  68  65 SE6         N/A
HIGHFILL       MOSUNNY   81  69  67 VRB5      30.02R
SPRINGDALE     MOSUNNY   79  70  73 E6        30.04R
$$

ARZ004-005-016-041800-
NORTH CENTRAL ARKANSAS

CITY           SKY/WX    TMP DP  RH WIND       PRES   REMARKS
BATESVILLE     CLOUDY    75  70  83 NE3       30.00S
FLIPPIN        MOSUNNY   79  70  73 S3        29.99S
MTN HOME       MOSUNNY   79  70  74 E5        30.01S
$$

ARZ040-041-041800-
WEST CENTRAL ARKANSAS

CITY           SKY/WX    TMP DP  RH WIND       PRES   REMARKS
MENA           PTSUNNY   81  73  78 CALM      30.01S HX  85
MOUNT IDA      CLOUDY    78  71  79 CALM      29.99R
$$

ARZ009-017-025-026-028-041800-
NORTHEAST ARKANSAS

CITY           SKY/WX    TMP DP  RH WIND       PRES   REMARKS
JONESBORO      CLOUDY    75  71  87 E3        29.99R
NEWPORT        CLOUDY    77  70  79 W3        30.00S
WALNUT RIDGE   CLOUDY    75  70  83 E5        29.99S
BLYTHEVILLE    CLOUDY    78  73  84 SW3       29.99S
$$

ARZ022-023-033-042-044-041800-
CENTRAL ARKANSAS

CITY           SKY/WX    TMP DP  RH WIND       PRES   REMARKS
LITTLE ROCK    CLOUDY    75  68  78 SW7       30.02R
N LITTLE ROCK  CLOUDY    76  71  83 SW8       30.02R
JACKSONVILLE   CLOUDY    77  70  77 SW8       30.00R
SEARCY         CLOUDY    77  71  82 CALM      30.01R
HOT SPRINGS    PTSUNNY   76  69  79 W7        30.02R
RUSSELLVILLE   CLOUDY    78  70  76 VRB3      29.99S
CLINTON        FAIR      77  72  83 CALM      30.01S
$$

ARZ036-041800-
EAST ARKANSAS

CITY           SKY/WX    TMP DP  RH WIND       PRES   REMARKS
WEST MEMPHIS   CLOUDY    74  72  93 VRB3      30.00R
$$

ARZ050-053-066-070-073-041800-
SOUTHWEST ARKANSAS

CITY           SKY/WX    TMP DP  RH WIND       PRES   REMARKS
ARKADELPHIA    FAIR      73  72  97 S3        30.02F
CAMDEN         RAIN      68  66  94 MISG      30.01F
TEXARKANA      TSTM      69  68  96 E9        30.03S FOG
EL DORADO      LGT RAIN  70  69  97 CALM      30.07R
DE QUEEN       CLOUDY    74  70  87 SE7       29.99S
$$

ARZ056-057-069-041800-
SOUTHEAST ARKANSAS

CITY           SKY/WX    TMP DP  RH WIND       PRES   REMARKS
PINE BLUFF     CLOUDY    74  69  85 S8        30.02S
STUTTGART      CLOUDY    75  70  83 SW10      30.01R
MONTICELLO     CLOUDY    70  70 100 SW9       30.03R

$$





USA.gov is the U.S. government's official web portal to all federal, state and local government web resources and services.